Time,TemperatureF,DewpointF,PressureIn,WindDirection,WindDirectionDegrees,WindSpeedMPH,WindSpeedGustMPH,Humidity,HourlyPrecipIn,Conditions,Clouds,dailyrainin,SoftwareType,DateUTC
2013-11-04 00:01:00,77.0,73.0,29.84,WSW,238,0.0,1.0,86,0.00,,,0.00,weatherlink.com 1.10,2013-11-04 04:01:00,
2013-11-04 00:16:00,76.7,73.0,29.84,West,260,0.0,1.0,87,0.00,,,0.00,weatherlink.com 1.10,2013-11-04 04:16:00,
2013-11-04 00:31:00,76.6,73.0,29.83,SSE,158,0.0,1.0,87,0.00,,,0.00,weatherlink.com 1.10,2013-11-04 04:31:00,
2013-11-04 00:46:00,77.1,73.0,29.82,SSE,167,0.0,1.0,87,0.00,,,0.00,weatherlink.com 1.10,2013-11-04 04:46:00,
2013-11-04 01:01:00,77.1,73.0,29.82,SSE,150,0.0,3.0,86,0.00,,,0.00,weatherlink.com 1.10,2013-11-04 05:01:00,
2013-11-04 01:16:00,76.2,73.0,29.81,SE,131,0.0,1.0,88,0.00,,,0.00,weatherlink.com 1.10,2013-11-04 05:16:00,
2013-11-04 01:31:00,75.9,73.0,29.80,SE,131,0.0,1.0,89,0.00,,,0.00,weatherlink.com 1.10,2013-11-04 05:31:00,
2013-11-04 01:46:00,76.4,73.0,29.80,SSE,150,1.0,1.0,88,0.00,,,0.00,weatherlink.com 1.10,2013-11-04 05:46:00,
2013-11-04 02:01:00,76.9,73.0,29.79,SSE,155,2.0,6.0,87,0.00,,,0.00,weatherlink.com 1.10,2013-11-04 06:01:00,
2013-11-04 02:16:00,77.0,73.0,29.78,SSE,165,1.0,3.0,87,0.00,,,0.00,weatherlink.com 1.10,2013-11-04 06:16:00,
2013-11-04 02:31:00,77.0,73.0,29.78,WSW,257,0.0,3.0,87,0.00,,,0.00,weatherlink.com 1.10,2013-11-04 06:31:00,
2013-11-04 02:46:00,76.9,73.0,29.78,SW,224,0.0,1.0,88,0.00,,,0.00,weatherlink.com 1.10,2013-11-04 06:46:00,
2013-11-04 03:01:00,76.9,73.0,29.78,SSW,200,0.0,1.0,88,0.00,,,0.00,weatherlink.com 1.10,2013-11-04 07:01:00,
2013-11-04 03:16:00,76.4,72.0,29.78,NNE,30,0.0,3.0,87,0.00,,,0.00,weatherlink.com 1.10,2013-11-04 07:16:00,
2013-11-04 03:31:00,75.1,72.0,29.78,NNE,30,0.0,0.0,90,0.00,,,0.00,weatherlink.com 1.10,2013-11-04 07:31:00,
2013-11-04 03:46:00,74.9,72.0,29.78,NNE,30,0.0,1.0,91,0.00,,,0.00,weatherlink.com 1.10,2013-11-04 07:46:00,
2013-11-04 04:01:00,74.7,72.0,29.78,NE,44,0.0,1.0,91,0.00,,,0.00,weatherlink.com 1.10,2013-11-04 08:01:00,
2013-11-04 04:16:00,74.4,72.0,29.78,NE,44,0.0,0.0,92,0.00,,,0.00,weatherlink.com 1.10,2013-11-04 08:16:00,
2013-11-04 04:31:00,74.3,72.0,29.79,NE,44,0.0,0.0,93,0.00,,,0.00,weatherlink.com 1.10,2013-11-04 08:31:00,
2013-11-04 04:46:00,74.3,72.0,29.79,NNE,33,0.0,1.0,93,0.00,,,0.00,weatherlink.com 1.10,2013-11-04 08:46:00,
2013-11-04 05:01:00,74.4,72.0,29.79,NNE,32,0.0,1.0,93,0.00,,,0.00,weatherlink.com 1.10,2013-11-04 09:01:00,
2013-11-04 05:16:00,74.2,72.0,29.79,NNE,32,0.0,0.0,94,0.00,,,0.00,weatherlink.com 1.10,2013-11-04 09:16:00,
2013-11-04 05:31:00,74.9,73.0,29.79,WSW,238,0.0,1.0,93,0.00,,,0.00,weatherlink.com 1.10,2013-11-04 09:31:00,
2013-11-04 05:46:00,74.4,72.0,29.80,ESE,106,0.0,1.0,93,0.00,,,0.00,weatherlink.com 1.10,2013-11-04 09:46:00,
2013-11-04 06:01:00,74.4,72.0,29.80,ESE,106,0.0,1.0,93,0.00,,,0.00,weatherlink.com 1.10,2013-11-04 10:01:00,
2013-11-04 06:16:00,74.3,72.0,29.81,ESE,106,0.0,1.0,93,0.00,,,0.00,weatherlink.com 1.10,2013-11-04 10:16:00,
2013-11-04 06:31:00,74.1,72.0,29.81,ESE,105,0.0,0.0,93,0.00,,,0.00,weatherlink.com 1.10,2013-11-04 10:31:00,
2013-11-04 06:46:00,74.2,72.0,29.82,ESE,106,1.0,1.0,94,0.00,,,0.00,weatherlink.com 1.10,2013-11-04 10:46:00,
2013-11-04 07:01:00,74.6,73.0,29.82,East,98,0.0,1.0,94,0.00,,,0.00,weatherlink.com 1.10,2013-11-04 11:01:00,
2013-11-04 07:16:00,75.4,74.0,29.82,East,97,0.0,1.0,94,0.00,,,0.00,weatherlink.com 1.10,2013-11-04 11:16:00,
2013-11-04 07:31:00,76.4,74.0,29.83,SSE,148,1.0,2.0,92,0.00,,,0.00,weatherlink.com 1.10,2013-11-04 11:31:00,
2013-11-04 07:47:00,77.7,75.0,29.84,SE,146,0.0,3.0,90,0.00,,,0.00,weatherlink.com 1.10,2013-11-04 11:47:00,
2013-11-04 08:02:00,79.3,76.0,29.84,SE,146,0.0,1.0,88,0.00,,,0.00,weatherlink.com 1.10,2013-11-04 12:02:00,
2013-11-04 08:17:00,81.4,76.0,29.85,SE,146,0.0,1.0,84,0.00,,,0.00,weatherlink.com 1.10,2013-11-04 12:17:00,
2013-11-04 08:32:00,83.4,76.0,29.86,ESE,107,1.0,1.0,77,0.00,,,0.00,weatherlink.com 1.10,2013-11-04 12:32:00,
2013-11-04 08:47:00,83.0,75.0,29.86,East,94,0.0,1.0,77,0.00,,,0.00,weatherlink.com 1.10,2013-11-04 12:47:00,
2013-11-04 09:02:00,84.2,76.0,29.86,East,94,0.0,1.0,75,0.00,,,0.00,weatherlink.com 1.10,2013-11-04 13:02:00,
2013-11-04 09:17:00,84.8,76.0,29.86,SE,134,0.0,1.0,74,0.00,,,0.00,weatherlink.com 1.10,2013-11-04 13:17:00,
2013-11-04 09:32:00,86.5,77.0,29.86,SW,233,0.0,1.0,72,0.00,,,0.00,weatherlink.com 1.10,2013-11-04 13:32:00,
2013-11-04 09:47:00,86.4,76.0,29.86,SSE,156,3.0,4.0,71,0.00,,,0.00,weatherlink.com 1.10,2013-11-04 13:47:00,
2013-11-04 10:02:00,85.9,76.0,29.86,SSE,152,0.0,4.0,72,0.00,,,0.00,weatherlink.com 1.10,2013-11-04 14:02:00,
2013-11-04 10:17:00,86.6,76.0,29.86,ESE,112,5.0,5.0,70,0.00,,,0.00,weatherlink.com 1.10,2013-11-04 14:17:00,
2013-11-04 10:32:00,87.0,75.0,29.86,SE,141,2.0,7.0,68,0.00,,,0.00,weatherlink.com 1.10,2013-11-04 14:32:00,
2013-11-04 10:47:00,88.2,75.0,29.86,SE,134,5.0,5.0,66,0.00,,,0.00,weatherlink.com 1.10,2013-11-04 14:47:00,
2013-11-04 11:02:00,88.9,76.0,29.85,SSW,204,1.0,4.0,65,0.00,,,0.00,weatherlink.com 1.10,2013-11-04 15:02:00,
2013-11-04 11:17:00,89.2,75.0,29.85,SE,142,1.0,3.0,63,0.00,,,0.00,weatherlink.com 1.10,2013-11-04 15:17:00,
2013-11-04 11:32:00,90.7,76.0,29.84,South,170,0.0,1.0,62,0.00,,,0.00,weatherlink.com 1.10,2013-11-04 15:32:00,
2013-11-04 11:47:00,89.1,74.0,29.83,NNE,32,2.0,4.0,62,0.00,,,0.00,weatherlink.com 1.10,2013-11-04 15:47:00,
2013-11-04 12:02:00,90.3,75.0,29.83,SE,138,0.0,3.0,61,0.00,,,0.00,weatherlink.com 1.10,2013-11-04 16:02:00,
2013-11-04 12:17:00,93.0,76.0,29.82,NE,51,0.0,3.0,57,0.00,,,0.00,weatherlink.com 1.10,2013-11-04 16:17:00,
2013-11-04 12:32:00,89.7,75.0,29.81,ENE,72,1.0,4.0,62,0.00,,,0.00,weatherlink.com 1.10,2013-11-04 16:32:00,
2013-11-04 12:47:00,88.3,74.0,29.80,ENE,68,1.0,3.0,62,0.00,,,0.00,weatherlink.com 1.10,2013-11-04 16:47:00,
2013-11-04 13:02:00,88.6,74.0,29.79,ESE,102,1.0,4.0,63,0.00,,,0.00,weatherlink.com 1.10,2013-11-04 17:02:00,
2013-11-04 13:17:00,89.7,75.0,29.78,SSE,165,0.0,4.0,63,0.00,,,0.00,weatherlink.com 1.10,2013-11-04 17:17:00,
2013-11-04 13:33:00,92.5,75.0,29.77,ESE,121,1.0,4.0,56,0.00,,,0.00,weatherlink.com 1.10,2013-11-04 17:33:00,
2013-11-04 13:48:00,92.2,73.0,29.77,SSE,166,3.0,7.0,54,0.00,,,0.00,weatherlink.com 1.10,2013-11-04 17:48:00,
2013-11-04 14:03:00,91.3,73.0,29.77,SE,142,8.0,8.0,55,0.00,,,0.00,weatherlink.com 1.10,2013-11-04 18:03:00,
2013-11-04 14:18:00,91.3,73.0,29.76,SE,141,2.0,4.0,55,0.00,,,0.00,weatherlink.com 1.10,2013-11-04 18:18:00,
2013-11-04 14:33:00,92.4,74.0,29.76,SSW,204,4.0,4.0,55,0.00,,,0.00,weatherlink.com 1.10,2013-11-04 18:33:00,
2013-11-04 14:48:00,91.4,73.0,29.76,SE,143,2.0,7.0,55,0.00,,,0.00,weatherlink.com 1.10,2013-11-04 18:48:00,
2013-11-04 15:03:00,89.9,74.0,29.76,SSW,195,1.0,4.0,59,0.00,,,0.00,weatherlink.com 1.10,2013-11-04 19:03:00,
2013-11-04 15:18:00,89.2,73.0,29.76,SSW,195,1.0,4.0,60,0.00,,,0.00,weatherlink.com 1.10,2013-11-04 19:18:00,
2013-11-04 15:33:00,90.1,73.0,29.76,SSE,162,2.0,4.0,58,0.00,,,0.00,weatherlink.com 1.10,2013-11-04 19:33:00,
2013-11-04 15:48:00,88.6,72.0,29.77,South,177,2.0,7.0,58,0.00,,,0.00,weatherlink.com 1.10,2013-11-04 19:48:00,
2013-11-04 16:03:00,87.9,73.0,29.77,SE,143,0.0,7.0,61,0.00,,,0.00,weatherlink.com 1.10,2013-11-04 20:03:00,
2013-11-04 16:18:00,88.3,73.0,29.77,SSE,154,0.0,4.0,60,0.00,,,0.00,weatherlink.com 1.10,2013-11-04 20:18:00,
2013-11-04 16:33:00,88.3,71.0,29.77,South,181,2.0,5.0,57,0.00,,,0.00,weatherlink.com 1.10,2013-11-04 20:33:00,
2013-11-04 16:48:00,87.0,71.0,29.77,SE,144,2.0,4.0,60,0.00,,,0.00,weatherlink.com 1.10,2013-11-04 20:48:00,
2013-11-04 17:03:00,85.5,72.0,29.78,South,172,0.0,3.0,65,0.00,,,0.00,weatherlink.com 1.10,2013-11-04 21:03:00,
2013-11-04 17:18:00,84.7,73.0,29.78,South,183,0.0,2.0,67,0.00,,,0.00,weatherlink.com 1.10,2013-11-04 21:18:00,
2013-11-04 17:33:00,84.1,72.0,29.79,West,264,0.0,2.0,68,0.00,,,0.00,weatherlink.com 1.10,2013-11-04 21:33:00,
2013-11-04 17:48:00,83.4,72.0,29.79,East,97,0.0,2.0,69,0.00,,,0.00,weatherlink.com 1.10,2013-11-04 21:48:00,
2013-11-04 18:03:00,83.0,72.0,29.79,North,352,0.0,1.0,70,0.00,,,0.00,weatherlink.com 1.10,2013-11-04 22:03:00,
2013-11-04 18:18:00,82.6,73.0,29.79,North,354,0.0,0.0,72,0.00,,,0.00,weatherlink.com 1.10,2013-11-04 22:18:00,
2013-11-04 18:33:00,82.2,73.0,29.79,North,354,0.0,0.0,73,0.00,,,0.00,weatherlink.com 1.10,2013-11-04 22:33:00,
2013-11-04 18:48:00,81.9,73.0,29.79,North,354,0.0,0.0,74,0.00,,,0.00,weatherlink.com 1.10,2013-11-04 22:48:00,
2013-11-04 19:03:00,81.3,73.0,29.80,SSE,150,1.0,2.0,77,0.00,,,0.00,weatherlink.com 1.10,2013-11-04 23:03:00,
2013-11-04 19:18:00,80.5,73.0,29.80,SE,129,0.0,1.0,78,0.00,,,0.00,weatherlink.com 1.10,2013-11-04 23:18:00,
2013-11-04 19:33:00,80.2,73.0,29.81,SSW,201,0.0,0.0,79,0.00,,,0.00,weatherlink.com 1.10,2013-11-04 23:33:00,
2013-11-04 19:48:00,79.8,73.0,29.82,SSE,154,0.0,1.0,80,0.00,,,0.00,weatherlink.com 1.10,2013-11-04 23:48:00,
2013-11-04 20:03:00,79.1,73.0,29.82,SSE,153,0.0,0.0,82,0.00,,,0.00,weatherlink.com 1.10,2013-11-05 00:03:00,
2013-11-04 20:18:00,78.7,73.0,29.83,SSE,150,0.0,1.0,83,0.00,,,0.00,weatherlink.com 1.10,2013-11-05 00:18:00,
2013-11-04 20:33:00,78.1,73.0,29.84,SSE,153,0.0,2.0,84,0.00,,,0.00,weatherlink.com 1.10,2013-11-05 00:33:00,
2013-11-04 20:48:00,77.7,73.0,29.83,SE,136,1.0,2.0,86,0.00,,,0.00,weatherlink.com 1.10,2013-11-05 00:48:00,
2013-11-04 21:03:00,77.7,73.0,29.84,SSE,150,3.0,3.0,86,0.00,,,0.00,weatherlink.com 1.10,2013-11-05 01:03:00,
2013-11-04 21:18:00,77.2,73.0,29.84,East,91,1.0,2.0,86,0.00,,,0.00,weatherlink.com 1.10,2013-11-05 01:18:00,
2013-11-04 21:33:00,77.2,73.0,29.84,SSE,148,0.0,3.0,86,0.00,,,0.00,weatherlink.com 1.10,2013-11-05 01:33:00,
2013-11-04 21:48:00,77.8,73.0,29.84,SSE,152,0.0,2.0,86,0.00,,,0.00,weatherlink.com 1.10,2013-11-05 01:48:00,
2013-11-04 22:03:00,78.0,74.0,29.85,SSE,148,0.0,2.0,86,0.00,,,0.00,weatherlink.com 1.10,2013-11-05 02:03:00,
2013-11-04 22:18:00,77.6,74.0,29.85,West,264,0.0,3.0,87,0.00,,,0.00,weatherlink.com 1.10,2013-11-05 02:18:00,
2013-11-04 22:33:00,78.0,74.0,29.85,West,260,2.0,6.0,86,0.00,,,0.00,weatherlink.com 1.10,2013-11-05 02:33:00,
2013-11-04 22:48:00,78.0,74.0,29.85,SSE,148,1.0,4.0,86,0.00,,,0.00,weatherlink.com 1.10,2013-11-05 02:48:00,
2013-11-04 23:03:00,77.9,73.0,29.85,South,184,1.0,4.0,85,0.00,,,0.00,weatherlink.com 1.10,2013-11-05 03:03:00,
2013-11-04 23:18:00,78.0,73.0,29.84,SE,136,1.0,2.0,83,0.00,,,0.00,weatherlink.com 1.10,2013-11-05 03:18:00,
2013-11-04 23:33:00,77.8,72.0,29.84,SSE,166,0.0,1.0,83,0.00,,,0.00,weatherlink.com 1.10,2013-11-05 03:33:00,
2013-11-04 23:48:00,77.9,72.0,29.83,South,170,0.0,1.0,82,0.00,,,0.00,weatherlink.com 1.10,2013-11-05 03:48:00,